METEOSAT-11 (MSG-4)

Last updated on Thu Jul 03 2025 00:02:22 GMT+0000 (Coordinated Universal Time)

1 40732U 15034A 25183.42266964 .00000067 00000+0 00000+0 0 9998 2 40732 2.3258 72.3843 0000620 104.8620 264.9398 1.00267338 3716
UTC large
Height (km)
Speed (km/s)
/
Latitude / Longitude
Inclination (degrees)
Orbital Period (minutes)
Azimuth
Elevation
Range (km)
Doppler Factor

Next 0 passes for location: London (51.5072 / 0.1276)

Sorry there are no passes over London.